Orbital elements:
2010 PM10                                                Earth MOID = 0.2244 AU
Epoch 2017 Sept. 4.0 TT = JDT 2458000.5                 MPC
M   3.27130              (2000.0)            P               Q
n   0.28600134     Peri.   59.64051     +0.98129713     -0.19149423
a   2.2815185      Node   311.39190     +0.16640619     +0.89515660
e   0.4637150      Incl.    1.50047     +0.09677250     +0.40252282
P   3.45           H   19.8           G   0.15           U   0
Residuals in seconds of arc
100806 704  0.7-  0.8+    100909 H21  0.1+  0.4+    101011 046  0.1+  0.3+
100806 704  0.3-  0.3+    100910 704  0.6-  1.2+    101012 G96  0.0   0.2-
100806 704  0.5-  0.2+    100910 704  0.3-  1.0+    101012 G96  0.1+  0.2-
100806 704  1.0-  1.3+    100910 704  0.2-  0.8+    101012 G96  0.2+  0.2-
100807 204  0.1+  0.0     100910 704  0.1-  0.6+    101012 G96  0.2+  0.2-
100807 204  0.2+  0.1-    100910 704  0.7-  0.6+    101012 A17  0.3+  0.2-
100807 204  0.2-  0.1-    100911 691  0.4-  0.1-    101013 A17  0.3+  0.3-
100807 H21  0.0   0.4-    100911 691  0.3-  0.0     101013 A17  0.2+  0.4-
100807 H21  0.2+  0.1-    100911 691  0.3-  0.1+    101014 704  1.1-  0.1+
100807 H36  0.8+  0.9-    100912 160  0.3+  0.3-    101014 704 (1.6-  0.0 )
100807 H36  0.0   0.5-    100912 160  0.5+  0.1-    101014 704  1.0-  0.2+
100807 H36  0.7+  0.6-    100912 160  0.2-  0.5-    101014 704  1.1-  0.8+
100807 673  0.4+  0.2-    100912 160  0.2-  0.5-    101014 704  1.0-  0.2+
100807 673  0.1-  0.1-    100912 160  0.0   0.4-    101016 J51  0.2-  0.5-
100807 673  0.6+  0.2-    100913 160  0.0   0.5-    101016 J51  0.2-  0.3-
100807 673  0.0   0.0     100916 691  0.1-  0.1-    101016 I99  0.7+  1.2-
100807 D21  0.7-  1.5+    100916 691  0.3-  0.0     101016 J51  0.0   0.1+
100807 D21  0.2-  1.4+    100916 691  0.2-  0.1+    101016 I99  0.0   0.4-
100807 D21  1.1-  0.7+    100918 H21  0.1+  0.1+    101016 I99  0.0   0.3-
100807 151  0.2-  0.3+    100918 H21  0.2+  0.1+    101017 704  0.2-  0.2+
100807 151  0.1+  0.5+    100918 H21  0.2+  0.2-    101017 704  0.1-  0.1-
100808 H21  0.1+  0.1+    100918 H21  0.0   0.1+    101017 704  0.3-  0.1-
100808 H21  0.0   0.0     100918 H21  0.4+  0.1-    101017 704  0.1-  0.2-
100808 H21  0.2-  0.1-    100919 448  0.1-  0.0     101017 704  0.2-  0.1+
100808 704  0.4+  0.5+    100919 448  0.1+  0.1-    101017 300  0.2-  0.3+
100808 704  0.2-  0.2+    100919 448  0.3+  0.0     101017 300  0.7+  0.1-
100808 704  1.0+  0.3+    100919 448  0.2-  0.1-    101017 300  0.4+  0.0
100808 704  0.5+  0.0     100919 448  0.1-  0.0     101017 300  0.8-  0.8+
100809 704  0.1+  0.1-    100919 300  0.3+  0.1+    101017 300  0.4+  0.3-
100809 704  1.3+  0.4+    100919 300  0.5+  0.6+    101019 160  0.5+  0.6-
100809 704  0.3-  0.8+    100919 300  0.1-  0.1+    101019 160  0.5+  0.4-
100809 704  0.1+  0.3-    100919 300  0.1+  0.2-    101019 160  0.1+  0.1-
100809 704  0.3-  0.0     100919 300  0.3-  0.3-    101020 160  0.3+  0.3-
100810 H21  0.2-  0.1-    100919 300  0.0   0.3-    101020 160  0.1+  0.5-
100810 H21  0.0   0.1+    100919 300  0.2+  0.1+    101020 160  0.1+  0.3-
100810 H21  0.1-  0.0     100920 160  0.9-  0.5-    101021 160  0.1+  0.1+
100810 H21  0.3-  0.1+    100920 160  0.2-  0.6-    101021 160  0.3+  0.0
100815 H21  0.3-  0.0     100920 160  0.1+  0.6-    101021 160  0.3+  0.1-
100815 H21  0.2-  0.1-    100920 300  0.6+  0.3+    101026 A13  0.3+  0.3-
100815 H21  0.2-  0.0     100920 300  0.2-  0.2-    101026 A13  0.6+  0.2+
100817 H21  0.2-  0.0     100920 300  0.4+  0.5+    101027 204  0.2+  0.0
100817 H21  0.1-  0.1-    100920 300  0.6+  0.1-    101027 204  0.2+  0.0
100817 H21  0.1-  0.1+    100920 300  0.1+  0.1-    101027 H21  0.4+  0.0
100817 H21  0.1-  0.1+    100920 160  0.0   0.2-    101027 H21  0.2+  0.1-
100819 071  0.7-  0.1+    100920 160  0.1+  0.4-    101027 H21  0.0   0.2-
100819 071  0.9-  1.2-    100920 160  0.0   0.0     101027 J75  0.0   0.1+
100819 071  0.8+  0.7+    100921 H21  0.1-  0.1+    101027 J75  0.5-  0.3-
100821 A17  0.4-  0.2-    100921 H21  0.1+  0.0     101027 J75  0.0   0.5-
100821 A17  0.2-  0.2-    100921 H21  0.1-  0.1-    101028 H21  0.5+  0.1+
100821 A17  0.1-  0.1-    100921 H21  0.2+  0.0     101028 H21  0.4+  0.2+
100821 204  0.0   0.0     100922 I15  0.3+  0.1+    101028 H21  0.6+  0.3-
100821 204  0.1-  0.2-    100922 I15  0.1-  0.6-    101028 H21  0.3+  0.2+
100822 204  0.0   0.0     100922 I15 (0.4+  1.7-)   101029 G96  0.1+  0.2-
100822 204  0.1-  0.1-    100922 160  0.4-  0.1+    101029 G96  0.0   0.3-
100822 H21  0.0   0.3+    100922 160  0.0   0.2+    101029 G96  0.3-  0.1-
100822 H21  0.1+  0.0     100922 160  0.2-  0.1+    101029 G96  0.4-  0.2-
100822 H21  0.2+  0.3+    100923 H21  0.3+  0.2-    101030 D29  0.2+  0.5-
100824 H21  0.4-  0.2-    100923 H21  0.3+  0.0     101030 D29  0.3+  0.2-
100824 H21  0.2-  0.1-    100923 H21  0.0   0.2-    101030 D29  0.0   0.0
100824 H21  0.1-  0.3-    100923 H21  0.4+  0.3-    101030 D29  0.2+  0.0
100824 H21  0.2-  0.4-    100923 H21  0.1-  0.3-    101031 D29  0.1-  0.1+
100826 H21  0.4-  0.3+    100929 H21  0.2+  0.2+    101031 D29  0.5-  0.3-
100826 H21  0.4-  0.1+    100929 H21  0.2+  0.1-    101031 D29  0.4+  0.6+
100826 H21  0.0   0.4-    100930 160  0.1+  0.0     101031 D29  0.1+  0.1-
100826 H21  0.1-  0.3-    100930 160  0.0   0.3-    101031 A98  0.1-  0.1-
100831 H21  0.2-  0.1+    100930 160  0.5+  0.2-    101031 A98  0.3-  0.0
100831 H21  0.1-  0.3+    100930 H26  0.4+  0.3+    101031 A98  0.2-  0.1+
100831 H21  0.1-  0.0     100930 H26  0.2+  0.2-    101031 A98  0.3-  0.1+
100831 H21  0.2-  0.1+    100930 H26  0.2+  0.1-    101031 A98  0.0   0.2-
100831 H21  0.2-  0.2+    100930 H26  0.2-  0.1+    101031 A98  0.4-  0.1+
100901 H21  0.0   0.2+    100930 H26  0.1+  0.2-    101031 A98  0.2-  0.2+
100901 H21  0.2+  0.1+    100930 703  0.3-  0.2-    101105 160  0.0   0.7-
100901 H21  0.2+  0.1+    100930 703  0.4-  0.3-    101105 160  0.2-  0.3-
100901 H21  0.2+  0.1-    100930 703  0.1-  0.3-    101105 160  0.1-  0.2+
100901 704  0.3-  0.4+    100930 703  0.0   0.0     101105 H45  0.1+  0.4-
100901 704  0.4+  0.2+    100930 A98  0.7+  0.9-    101105 H45  0.2+  0.3-
100901 704  0.2+  0.6+    100930 A98  0.1-  1.4-    101105 H45  0.2+  0.2-
100901 704  0.2-  0.4+    100930 A98  0.3+  0.0     101105 H45  0.1+  0.1-
100901 704  0.3+  0.4+    101001 H21  0.1-  0.1-    101105 H45  0.0   0.3-
100902 704  0.0   0.3-    101001 H21  0.4-  0.1-    101105 H45  0.0   0.2-
100902 704  0.3-  0.1-    101001 H21  0.3-  0.1-    101107 704  0.5-  1.4+
100902 704  0.5+  0.2-    101001 H21  0.5-  0.0     101107 704  0.1+  1.4+
100902 704  0.2+  0.2-    101002 H21  0.2+  0.1+    101107 704  0.2+  0.3+
100902 704  0.0   0.3+    101002 H21  0.2+  0.1-    101107 704  0.3-  0.5-
100902 704  0.1+  0.2+    101002 H21  0.4-  0.0     101107 704  1.1+  0.0
100902 704  0.0   0.1-    101002 H21  0.2-  0.0     101110 691  0.8-  0.2+
100902 704  0.6-  0.2-    101002 704  0.3-  0.5+    101110 691  0.5-  0.1+
100902 704  0.0   0.7+    101002 704  0.2-  0.9+    101110 691  0.5-  0.1+
100902 704  0.4-  0.2-    101002 704  0.2-  0.5+    101111 704 (0.8-  1.6+)
100903 160  0.6+  0.0     101002 704  0.1-  0.5+    101111 704 (0.2+  1.6+)
100903 160  0.3-  0.1+    101002 704  0.3+  0.8+    101111 H21  0.1-  0.1-
100903 160  0.5+  0.5-    101004 H26  0.6+  0.2-    101111 704  0.2+  0.4+
100904 160  0.6-  0.2-    101004 H26  0.4+  0.3-    101111 H21  0.1-  0.0
100904 160  0.3-  0.3-    101004 H26  0.3+  0.4-    101111 H21  0.2-  0.3+
100904 160  0.2-  0.5-    101004 H26  0.2+  0.3-    101111 H21  0.1-  0.3+
100906 113  0.1+  0.5-    101004 H26  0.1+  0.6-    101111 704  0.3+  1.5+
100906 113  0.1-  0.3-    101004 H26  0.6+  0.6-    101111 704  0.7+  0.6+
100906 113  0.4+  0.3-    101005 J75  0.8+  0.3+    101112 H21  0.2-  0.0
100906 160  0.1-  0.6-    101005 J75  1.4-  0.7+    101112 H21  0.2-  0.1+
100906 160  0.0   0.4-    101005 J75  0.5+  0.3+    101112 H21  0.2-  0.1+
100906 160  0.2-  0.1-    101005 152  0.8+  0.4-    101112 H21  0.2-  0.1+
100906 704  0.1+  0.2+    101006 152  0.9+  0.4-    101113 704  0.3-  0.5+
100906 704  0.1-  0.2+    101006 152  0.9+  0.7-    101113 704  0.1-  0.4+
100906 704  1.1-  1.0+    101006 A13  0.3+  0.2-    101113 704 (0.3+  1.6+)
100906 704  0.8+  0.1-    101006 A13  0.1+  0.2-    101113 704  0.2+  1.2+
100906 H45  0.3+  0.3-    101009 704  0.0   0.2+    101113 704  0.1-  0.3+
100906 H45  0.3+  0.3-    101009 704  0.0   0.1+    101115 046  0.0   0.2-
100906 H45  0.3+  0.5-    101009 704  0.1+  0.6+    101115 046  0.2-  0.1+
100906 H45  0.2+  0.4-    101009 704  0.0   0.4+    101115 046  0.3+  0.1+
100906 H45  0.6+  0.5-    101009 704  0.1-  0.3+    101115 046  0.3-  0.3+
100906 704  0.3-  0.6+    101009 703  0.0   0.6-    101115 046  0.0   0.2+
100906 H45  0.2+  0.3-    101009 703  0.4+  0.2-    101124 H21  0.2-  0.1+
100907 H21  0.5+  0.3+    101009 703  0.3+  0.3-    101124 H21  0.2-  0.5+
100907 H21  0.5+  0.2+    101009 703  0.0   0.4-    101124 H21  0.3-  0.4+
100907 H21  0.6+  0.0     101009 H21  0.0   0.0     101206 704 (0.0   1.7+)
100908 704  0.1-  1.0+    101009 H21  0.5+  0.3-    101206 704  0.9+  0.7+
100908 704  0.3-  1.1+    101009 H21  0.3+  0.3-    101206 704  0.0   1.2+
100908 704  0.0   1.2+    101009 H21  0.5+  0.2-    110122 H21  0.6+  1.2+
100908 704  0.1+  1.3+    101011 G96  0.4+  0.1-    110122 H21  0.0   0.8+
100908 704  0.1-  0.9+    101011 G96  0.1+  0.4-    110122 H21  0.8-  1.0+
100909 704  0.0   0.2+    101011 G96  0.4+  0.3-    170820 J04  0.6-  0.1-
100909 704  0.1+  0.3+    101011 G96  0.1+  0.2-    170820 J04  0.4+  0.3-
100909 704  0.2+  0.5-    101011 046  0.1-  0.1-    170820 J04  0.1+  0.3-
100909 H21  0.1+  0.1+    101011 046  0.2-  0.1+    170917 J04  0.0   0.3-
100909 H21  0.1+  0.2+    101011 046  0.1+  0.0     170917 J04  0.2+  0.2+
100909 H21  0.2+  0.2+    101011 046  0.1-  0.0

